Location: Hormuz
(27.0871°N, 56.4580°E)
Time: 05:20:25
(UTC+04:30)

X-37B - Pass Details

Date: 22 June 2021
Orbit: 383 x 392 km, 45.0° (Epoch: 01 July)

Event Time Altitude Azimuth Distance (km) Brightness Sun altitude
Rises 21:14:35 0° 242° (WSW) 2,244 4.8 -18.1°
Reaches altitude 10° 21:16:42 10° 250° (WSW) 1,393 3.8 -18.5°
Maximum altitude 21:19:43 43° 323° (NW) 542 1.7 -19.0°
Drops below altitude 10° 21:22:44 10° 38° (NE) 1,396 3.4 -19.5°
Enters shadow 21:23:44 - 42° (NE) 1,793 3.9 -19.7°
